Change the Weather History Date:

Friday, July 6, 2012

  Actual Average Record
Temperature  
Mean Temperature 84 °F 81 °F  
Max Temperature 96 °F 92 °F 99 °F (1953)
Min Temperature 71 °F 71 °F 56 °F (1970)
Degree Days  
Heating Degree Days 0 0  
Month to date heating degree days 0 0  
Since 1 June heating degree days 0 0  
Since 1 July heating degree days 0 0  
Cooling Degree Days 19 16  
Month to date cooling degree days 113 96  
Year to date cooling degree days 1094 884  
Since 1 June cooling degree days 539 514  
Growing Degree Days 33 (Base 50)    
Moisture  
Dew Point 72 °F    
Average Humidity 73    
Maximum Humidity 100    
Minimum Humidity 46    
Precipitation  
Precipitation T in 0.12 in 3.70 in (1995)
Month to date precipitation 0.09 0.74  
Year to date precipitation 28.55 30.03  
Sea Level Pressure  
Sea Level Pressure 30.02 in    
Wind  
Wind Speed 3 mph (SSE)    
Max Wind Speed 13 mph    
Max Gust Speed 15 mph    
Visibility 9 miles    
Events      
T = Trace of Precipitation, MM = Missing Value Source: NWS Daily Summary

Daily Weather History Graph

Daily Weather History Graph

Search for Another Location

Airport or City:

Trip Planner

Search our weather history database for the weather conditions in past years. The results will help you decide how hot, cold, wet, or windy it might be!

Date:

Astronomy

Jul. 06, 2012 Rise Set
Actual Time 6:03 AM CDT 8:14 PM CDT
Civil Twilight 5:35 AM CDT 8:42 PM CDT
Nautical Twilight 5:00 AM CDT 9:16 PM CDT
Astronomical Twilight 4:23 AM CDT 9:53 PM CDT
Moon 10:19 PM CDT (7/6) 9:10 AM CDT (7/6)
Length of Visible Light 15h 07m
Length of Day
14h 11m
Waning Gibbous, 89% of the Moon is Illuminated
Jul 6
Waning Gibbous
Jul 10
Last Quarter
Jul 18
New
Jul 26
First Quarter
Aug 1
Full

Hourly Weather History & Observations

Time (CDT) Temp. Heat Index Dew Point Humidity Pressure Visibility Wind Dir Wind Speed Gust Speed Precip Events Conditions
12:53 AM 72.0 °F - 71.1 °F 97% 30.02 in 10.0 mi Calm Calm - N/A   Clear
1:53 AM 71.1 °F - 70.0 °F 96% 30.02 in 8.0 mi Calm Calm - N/A   Clear
2:53 AM 72.0 °F - 70.0 °F 93% 30.02 in 9.0 mi Calm Calm - N/A   Clear
3:53 AM 72.0 °F - 70.0 °F 93% 30.03 in 6.0 mi Calm Calm - N/A   Clear
4:53 AM 71.1 °F - 70.0 °F 96% 30.04 in 5.0 mi Calm Calm - N/A   Clear
5:53 AM 73.9 °F - 72.0 °F 93% 30.06 in 10.0 mi East 6.9 mph - N/A   Clear
6:53 AM 72.0 °F - 71.1 °F 97% 30.04 in 6.0 mi WSW 4.6 mph - N/A   Clear
7:53 AM 73.9 °F - 73.0 °F 97% 30.02 in 7.0 mi WSW 5.8 mph - N/A   Clear
8:53 AM 81.0 °F 86.2 °F 73.9 °F 79% 30.06 in 10.0 mi Calm Calm - N/A   Clear
9:53 AM 82.9 °F 90.2 °F 75.0 °F 77% 30.06 in 10.0 mi Calm Calm - N/A   Clear
10:53 AM 87.1 °F 97.3 °F 75.9 °F 69% 30.06 in 10.0 mi SW 3.5 mph - N/A   Clear
11:53 AM 91.0 °F 100.4 °F 73.9 °F 57% 30.06 in 10.0 mi WNW 4.6 mph - N/A   Clear
12:53 PM 93.9 °F 105.4 °F 75.0 °F 54% 30.05 in 10.0 mi East 4.6 mph - N/A   Clear
1:53 PM 95.0 °F 103.2 °F 72.0 °F 47% 30.03 in 10.0 mi ENE 6.9 mph - N/A   Clear
2:53 PM 91.9 °F 100.7 °F 73.0 °F 54% 29.99 in 10.0 mi ENE 4.6 mph - N/A   Clear
3:53 PM 90.0 °F 97.9 °F 73.0 °F 57% 29.98 in 10.0 mi East 4.6 mph - N/A   Clear
4:53 PM 90.0 °F 96.9 °F 72.0 °F 55% 29.98 in 10.0 mi ESE 5.8 mph - N/A   Clear
5:53 PM 89.1 °F 94.1 °F 70.0 °F 53% 29.97 in 10.0 mi SSE 3.5 mph - N/A   Clear
6:53 PM 88.0 °F 96.5 °F 73.9 °F 63% 29.97 in 10.0 mi Calm Calm - N/A   Clear
7:53 PM 82.9 °F 88.8 °F 73.0 °F 72% 29.99 in 10.0 mi WSW 4.6 mph - N/A   Clear
8:53 PM 79.0 °F - 72.0 °F 79% 30.00 in 10.0 mi South 3.5 mph - N/A   Clear
9:53 PM 75.9 °F - 72.0 °F 87% 30.02 in 10.0 mi South 4.6 mph - N/A   Clear
10:53 PM 75.9 °F - 71.1 °F 85% 30.03 in 10.0 mi South 3.5 mph - N/A   Clear
11:53 PM 73.0 °F - 71.1 °F 93% 30.04 in 10.0 mi Calm Calm - 0.00 in   Clear